GW4017 Weather Reports


time (UTC)temp
F
wind
direction
speed
knots
gust
knots
rain 1hr
in
rain 24hr
in
rain mn
in
humidity
%
barometer
mb
20260503013042 64 0 0.0 0.0 0.00 0.00 0.00 35 1014.9
20260503011548 65 0 0.0 0.0 0.00 0.00 0.00 34 1014.9
20260503010042 66 0 0.0 0.0 0.00 0.00 0.00 33 1015.0
20260503004609 67 0 0.0 0.9 0.00 0.00 0.00 32 1015.2
20260503003042 68 0 0.0 3.5 0.00 0.00 0.00 32 1015.2
20260503001541 67 0 0.0 1.7 0.00 0.00 0.00 33 1015.2
20260503000059 65 0 0.0 0.0 0.00 0.00 0.00 34 1015.5
20260502234543 67 0 0.0 0.0 0.00 0.00 0.00 32 1015.7
20260502233040 68 0 0.0 3.5 0.00 0.00 0.00 33 1015.9
20260502231542 68 95 1.7 7.0 0.00 0.00 0.00 32 1016.3
20260502230043 67 66 1.7 9.6 0.00 0.00 0.00 33 1016.3
20260502224541 67 124 1.7 7.0 0.00 0.00 0.00 33 1016.4
20260502223041 67 72 2.6 4.3 0.00 0.00 0.00 33 1016.5
20260502221538 67 0 0.0 6.1 0.00 0.00 0.00 36 1016.8
20260502220053 65 0 0.0 0.0 0.00 0.00 0.00 34 1017.1
20260502214543 66 0 1.7 4.3 0.00 0.00 0.00 35 1017.2
20260502213043 67 103 0.9 7.8 0.00 0.00 0.00 33 1017.3
20260502211542 67 94 2.6 6.1 0.00 0.00 0.00 33 1017.5
20260502210040 69 0 0.0 3.5 0.00 0.00 0.00 33 1017.7
20260502204542 68 0 0.0 0.9 0.00 0.00 0.00 33 1017.7
20260502203041 68 0 0.0 1.7 0.00 0.00 0.00 35 1018.0
20260502201545 65 0 0.9 3.5 0.00 0.00 0.00 36 1018.1
20260502200057 64 348 4.3 10.4 0.00 0.00 0.00 37 1018.4
20260502194543 67 90 0.0 4.3 0.00 0.00 0.00 33 1018.3
20260502193044 66 23 1.7 5.2 0.00 0.00 0.00 35 1018.5
20260502191545 65 0 0.0 7.8 0.00 0.00 0.00 37 1018.8
20260502190047 64 37 4.3 11.3 0.00 0.00 0.00 38 1018.8
20260502184538 66 0 0.0 4.3 0.00 0.00 0.00 36 1019.0
20260502183043 65 0 0.0 5.2 0.00 0.00 0.00 37 1019.2
20260502181541 64 0 0.0 8.7 0.00 0.00 0.00 38 1019.2
20260502163047 60 0 0.0 1.7 0.00 0.00 0.00 42 1019.9
20260502161537 60 34 2.6 7.0 0.00 0.00 0.00 42 1019.9
20260502151600 57 0 0.0 0.9 0.00 0.00 0.00 47 1019.9
20260502123042 44 0 0.0 0.9 0.00 0.00 0.00 61 1018.5
20260502121543 44 0 0.0 0.0 0.00 0.00 0.00 61 1018.3
20260502114540 45 0 0.0 0.0 0.00 0.00 0.00 60 1017.5
20260502113047 45 0 0.0 0.0 0.00 0.00 0.00 59 1017.4
20260502111546 46 0 0.0 0.0 0.00 0.00 0.00 56 1017.3
20260502110041 46 0 0.0 0.0 0.00 0.00 0.00 55 1017.3
20260502104541 46 0 0.0 0.0 0.00 0.00 0.00 54 1017.1
20260502103041 46 0 0.0 0.0 0.00 0.00 0.00 53 1017.0
20260502101537 47 0 0.0 0.0 0.00 0.00 0.00 51 1016.7
20260502090106 47 0 0.0 0.0 0.00 0.00 0.00 46 1015.9
20260502070048 48 0 0.0 0.0 0.00 0.00 0.00 40 1015.6
20260502064556 48 0 0.0 0.9 0.00 0.00 0.00 40 1015.6
20260502063048 50 0 0.0 0.0 0.00 0.00 0.00 36 1015.3
20260502061541 50 0 0.0 0.0 0.00 0.00 0.00 35 1015.3
20260502060042 52 0 0.0 0.0 0.00 0.00 0.00 35 1015.2
20260502054537 50 0 0.0 0.0 0.00 0.00 0.00 36 1015.1
20260502053045 52 0 0.0 0.0 0.00 0.00 0.00 36 1015.0
20260502051543 53 0 0.0 0.0 0.00 0.00 0.00 34 1015.0
20260502050042 54 0 0.0 0.0 0.00 0.00 0.00 33 1015.0
20260502044541 54 0 0.0 0.0 0.00 0.00 0.00 34 1015.1
20260502043042 53 0 0.0 0.0 0.00 0.00 0.00 34 1015.0
20260502041545 54 0 0.0 0.0 0.00 0.00 0.00 33 1014.9
20260502040036 55 0 0.0 0.0 0.00 0.00 0.00 32 1014.9
20260502034542 56 0 0.0 0.0 0.00 0.00 0.00 30 1014.9
20260502033042 58 0 0.0 0.0 0.00 0.00 0.00 28 1014.8
20260502031542 60 0 0.0 0.0 0.00 0.00 0.00 26 1014.7
20260502030042 62 0 0.0 0.0 0.00 0.00 0.00 25 1014.4
20260502024551 63 0 0.0 0.0 0.00 0.00 0.00 24 1014.2
20260502023051 65 0 0.0 0.0 0.00 0.00 0.00 24 1014.1
20260502021543 67 0 0.0 0.0 0.00 0.00 0.00 23 1013.9
20260502020042 69 0 0.0 0.0 0.00 0.00 0.00 22 1013.9
20260502014538 70 0 0.0 0.0 0.00 0.00 0.00 21 1013.9